GEC855 EDDF-LTFM

Flight info

Callsign GEC855
Flight time N/A
Altitude 31000
Route CINDY8S/18 CINDY Z74 HAREM DCT ASLEP DCT TAKUT L603 BESNI/N0476F350 L605 MIQ DCT ALUTU DCT BIBAG DCT ESEGA DCT VELOM DCT GOTAR DCT NALOX DCT BABIT DCT ESIRI DCT ETIDA T390 RILEX
Aircraft B77L/H-SDE1E2E3FGHIJ2J3J4J5M1RWXY/LB1D1

Departure

Time 2026-04-18 09:02
Airport Frankfurt Main Airport (EDDF)

Arrival

Time N/A
Airport İstanbul Airport (LTFM)
Time Latitude Longitude Altitude Speed Heading
2026-04-18 08:36 50.04001 8.54539 357 ft 0 kts 249°
2026-04-18 08:50 50.04002 8.54540 350 ft 1 kts 249°
2026-04-18 08:50 50.04011 8.54575 360 ft 4 kts 244°
2026-04-18 08:50 50.04024 8.54611 360 ft 4 kts 233°
2026-04-18 08:51 50.04040 8.54643 360 ft 4 kts 232°
2026-04-18 08:51 50.04056 8.54677 360 ft 4 kts 232°
2026-04-18 08:51 50.04063 8.54690 360 ft 0 kts 216°
2026-04-18 08:56 50.04061 8.54689 350 ft 1 kts 216°
2026-04-18 08:56 50.04047 8.54677 355 ft 6 kts 205°
2026-04-18 08:56 50.03974 8.54683 355 ft 12 kts 186°
2026-04-18 08:56 50.03919 8.54599 355 ft 12 kts 250°
2026-04-18 08:57 50.03854 8.54359 358 ft 12 kts 237°
2026-04-18 08:57 50.03809 8.54249 359 ft 12 kts 244°
2026-04-18 08:57 50.03777 8.54129 355 ft 12 kts 249°
2026-04-18 08:58 50.03748 8.54007 358 ft 12 kts 250°
2026-04-18 08:58 50.03720 8.53886 358 ft 12 kts 250°
2026-04-18 08:58 50.03691 8.53764 360 ft 12 kts 250°
2026-04-18 08:58 50.03661 8.53642 357 ft 12 kts 248°
2026-04-18 08:59 50.03631 8.53521 355 ft 12 kts 249°
2026-04-18 08:59 50.03600 8.53400 360 ft 12 kts 249°
2026-04-18 08:59 50.03569 8.53265 358 ft 17 kts 250°
2026-04-18 08:59 50.03529 8.53095 357 ft 17 kts 250°
2026-04-18 09:00 50.03486 8.52925 353 ft 17 kts 248°
2026-04-18 09:00 50.03442 8.52757 358 ft 17 kts 248°
2026-04-18 09:00 50.03403 8.52628 360 ft 12 kts 230°
2026-04-18 09:00 50.03337 8.52593 355 ft 3 kts 178°
2026-04-18 09:01 50.03335 8.52593 355 ft 0 kts 178°
2026-04-18 09:01 50.03167 8.52596 353 ft 71 kts 179°
2026-04-18 09:01 50.02316 8.52605 358 ft 172 kts 179°
2026-04-18 09:02 50.00934 8.52640 853 ft 214 kts 178°
2026-04-18 09:02 49.99415 8.52677 2208 ft 209 kts 180°
2026-04-18 09:02 49.97905 8.52669 3343 ft 234 kts 181°
2026-04-18 09:02 49.96233 8.53318 3932 ft 273 kts 149°
2026-04-18 09:03 49.94913 8.55400 4206 ft 274 kts 124°
2026-04-18 09:03 49.93962 8.57968 4943 ft 274 kts 117°
2026-04-18 09:03 49.93167 8.60656 6111 ft 272 kts 115°
2026-04-18 09:03 49.92389 8.63338 7150 ft 274 kts 116°
2026-04-18 09:04 49.91570 8.66026 8051 ft 279 kts 117°
2026-04-18 09:04 49.90695 8.68739 8897 ft 283 kts 118°
2026-04-18 09:04 49.89779 8.71476 9786 ft 288 kts 119°
2026-04-18 09:04 49.88825 8.74243 10554 ft 294 kts 120°
2026-04-18 09:05 49.87813 8.77123 10894 ft 317 kts 120°
2026-04-18 09:05 49.86715 8.80208 11106 ft 344 kts 120°